Location: LDNL
(36.4545°S, 141.6685°E)
Time: 11:51:12
(UTC+10:00)

Tiros 1 despin weight - Pass Details

Date: 11 August 2022
Orbit: 590 x 639 km, 48.2° (Epoch: 23 September)

Event Time Altitude Azimuth Distance (km) Brightness Sun altitude
Rises 05:59:30 0° 232° (SW) 2,964 - -16.8°
Reaches altitude 10° 06:02:00 10° 223° (SW) 2,053 - -16.3°
Exits shadow 06:03:11 17° 216° (SW) 1,653 ? -16.1°
Maximum altitude 06:06:24 37° 156° (SSE) 1,014 ? -15.5°
Drops below altitude 10° 06:10:46 10° 88° (E) 2,037 ? -14.6°
Sets 06:13:14 0° 79° (E) 2,938 ? -14.1°
